FW9676 Weather Reports


Display with metric or nautical units.
time (UTC)temp
F
wind
direction
speed
MPH
gust
MPH
rain 1hr
in
rain 24hr
in
rain mn
in
humidity
%
barometer
mb
20260510070513 60 136 0.0 4.0 0.00 0.00 0.00 93 1013.4
20260510070031 60 136 1.0 4.0 0.00 0.00 0.00 93 1013.5
20260510065514 60 105 1.0 3.0 0.00 0.00 0.00 94 1013.4
20260510065014 60 154 0.0 4.0 0.00 0.00 0.00 94 1013.2
20260510064545 60 202 0.0 4.0 0.00 0.00 0.00 94 1013.3
20260510064013 60 0 1.0 3.0 0.00 0.00 0.00 94 1013.4
20260510063513 60 0 0.0 2.0 0.00 0.00 0.00 94 1013.3
20260510063040 59 0 0.0 2.0 0.00 0.00 0.00 94 1013.3
20260510062512 59 0 0.0 2.0 0.00 0.00 0.00 94 1013.4
20260510062020 59 0 0.0 2.0 0.00 0.00 0.00 94 1013.4
20260510061533 59 0 0.0 2.0 0.00 0.00 0.00 94 1013.5
20260510061013 59 0 0.0 3.0 0.00 0.00 0.00 94 1013.5
20260510060510 59 0 0.0 3.0 0.00 0.00 0.00 94 1013.5
20260510060042 59 242 0.0 4.0 0.00 0.00 0.00 94 1013.5
20260510055513 59 259 1.0 4.0 0.00 0.00 0.00 94 1013.5
20260510055013 59 0 0.0 3.0 0.00 0.00 0.00 94 1013.5
20260510054530 59 297 1.0 3.0 0.00 0.00 0.00 94 1013.6
20260510054016 59 269 0.0 4.0 0.00 0.00 0.00 94 1013.6
20260510053511 59 267 1.0 4.0 0.00 0.00 0.00 94 1013.6
20260510053040 59 250 1.0 4.0 0.00 0.00 0.00 94 1013.6
20260510052512 59 266 2.0 4.0 0.00 0.00 0.00 94 1013.6
20260510052015 59 217 1.0 6.0 0.00 0.00 0.00 94 1013.5
20260510051530 59 263 1.0 7.0 0.00 0.00 0.00 94 1013.5
20260510051012 59 269 1.0 7.0 0.00 0.00 0.00 93 1013.5
20260510050510 59 278 3.0 7.0 0.00 0.00 0.00 93 1013.5
20260510050030 59 252 2.0 7.0 0.00 0.00 0.00 93 1013.5
20260510045513 59 0 2.0 6.0 0.00 0.00 0.00 93 1013.6
20260510045015 59 271 2.0 8.0 0.00 0.00 0.00 93 1013.5
20260510044544 59 227 2.0 8.0 0.00 0.00 0.00 93 1013.5
20260510044013 59 211 1.0 7.0 0.00 0.00 0.00 93 1013.4
20260510043513 59 258 3.0 7.0 0.00 0.00 0.00 93 1013.5
20260510043034 59 275 2.0 7.0 0.00 0.00 0.00 93 1013.5
20260510042512 59 265 3.0 7.0 0.00 0.00 0.00 93 1013.4
20260510042011 59 0 1.0 7.0 0.00 0.00 0.00 93 1013.4
20260510041533 59 267 2.0 7.0 0.00 0.00 0.00 93 1013.3
20260510041014 59 261 4.0 8.0 0.00 0.00 0.00 93 1013.2
20260510040516 60 284 3.0 9.0 0.00 0.00 0.00 92 1013.1
20260510040040 60 271 2.0 9.0 0.00 0.00 0.00 92 1013.1
20260510035513 60 255 2.0 7.0 0.00 0.00 0.00 92 1013.1
20260510035012 60 242 2.0 7.0 0.00 0.00 0.00 92 1013.0
20260510034534 60 248 2.0 8.0 0.00 0.00 0.00 92 1013.0
20260510034011 60 238 3.0 9.0 0.00 0.00 0.00 92 1012.9
20260510033511 60 257 5.0 11.0 0.00 0.00 0.00 92 1012.8
20260510033048 60 267 3.0 11.0 0.00 0.00 0.00 92 1012.7
20260510032510 60 239 3.0 10.0 0.00 0.00 0.00 92 1012.7
20260510032018 60 232 3.0 10.0 0.00 0.00 0.00 92 1012.7
20260510031528 60 262 2.0 8.0 0.00 0.00 0.00 92 1012.6
20260510031013 60 222 3.0 10.0 0.00 0.00 0.00 91 1012.6
20260510030519 60 221 3.0 11.0 0.00 0.00 0.00 91 1012.5
20260510030042 60 273 4.0 11.0 0.00 0.00 0.00 91 1012.4
20260510025512 61 229 4.0 11.0 0.00 0.00 0.00 91 1012.4
20260510025010 60 222 3.0 9.0 0.00 0.00 0.00 91 1012.4
20260510024528 61 222 3.0 9.0 0.00 0.00 0.00 91 1012.3
20260510024013 61 260 3.0 9.0 0.00 0.00 0.00 91 1012.2
20260510023514 61 215 4.0 9.0 0.00 0.00 0.00 91 1012.2
20260510023030 61 260 4.0 9.0 0.00 0.00 0.00 90 1012.2
20260510022513 61 258 3.0 9.0 0.00 0.00 0.00 90 1012.1
20260510022013 61 253 2.0 13.0 0.00 0.00 0.00 90 1012.2
20260510021532 61 219 4.0 13.0 0.00 0.00 0.00 90 1012.1
20260510021011 61 232 4.0 10.0 0.00 0.00 0.00 90 1012.1
20260510020510 61 279 4.0 11.0 0.00 0.00 0.00 90 1012.1
20260510020032 61 296 4.0 12.0 0.00 0.00 0.00 90 1012.0
20260510015514 61 285 5.0 12.0 0.00 0.00 0.00 89 1011.9
20260510015014 62 225 4.0 13.0 0.00 0.00 0.00 89 1011.9
20260510014538 62 246 5.0 13.0 0.00 0.00 0.00 89 1011.9
20260510014013 62 261 5.0 13.0 0.00 0.00 0.00 88 1011.8
20260510013510 62 281 4.0 11.0 0.00 0.00 0.00 88 1011.7
20260510013031 62 254 4.0 11.0 0.00 0.00 0.00 87 1011.8
20260510012509 62 269 4.0 11.0 0.00 0.00 0.00 87 1011.9
20260510012010 62 257 5.0 11.0 0.00 0.00 0.00 87 1011.9
20260510011531 63 283 4.0 13.0 0.00 0.00 0.00 87 1011.8
20260510011014 63 205 4.0 13.0 0.00 0.00 0.00 87 1011.8
20260510010513 63 240 3.0 10.0 0.00 0.00 0.00 86 1011.7
20260510010031 63 302 3.0 10.0 0.00 0.00 0.00 86 1011.7
20260510005513 63 246 5.0 11.0 0.00 0.00 0.00 86 1011.6
20260510005013 63 225 4.0 15.0 0.00 0.00 0.00 86 1011.6
20260510004534 63 246 7.0 15.0 0.00 0.00 0.00 86 1011.7
20260510004016 64 270 5.0 14.0 0.00 0.00 0.00 85 1011.6
20260510003513 64 263 4.0 14.0 0.00 0.00 0.00 85 1011.7
20260510003030 64 267 5.0 12.0 0.00 0.00 0.00 85 1011.7
20260510002512 64 201 4.0 12.0 0.00 0.00 0.00 85 1011.8
20260510002012 64 235 4.0 12.0 0.00 0.00 0.00 85 1011.9
20260510001532 64 258 6.0 11.0 0.00 0.00 0.00 85 1011.8
20260510001014 64 267 5.0 14.0 0.00 0.00 0.00 84 1011.9
20260510000510 65 223 4.0 15.0 0.00 0.00 0.00 84 1012.0
20260510000029 65 224 5.0 15.0 0.00 0.00 0.00 83 1011.9
20260509235513 66 279 7.0 14.0 0.00 0.00 0.00 81 1011.9
20260509235015 66 276 4.0 14.0 0.00 0.00 0.00 81 1011.8
20260509234542 66 278 6.0 14.0 0.00 0.00 0.00 81 1011.8
20260509234013 66 264 4.0 14.0 0.00 0.00 0.00 82 1011.8
20260509233514 67 284 5.0 14.0 0.00 0.00 0.00 80 1011.8
20260509233030 67 219 4.0 13.0 0.00 0.00 0.00 80 1011.9
20260509232514 67 231 6.0 16.0 0.00 0.00 0.00 80 1012.0
20260509232011 67 281 7.0 16.0 0.00 0.00 0.00 80 1012.0
20260509231529 67 219 6.0 16.0 0.00 0.00 0.00 80 1012.0
20260509231009 67 309 5.0 14.0 0.00 0.00 0.00 80 1011.9
20260509230513 67 281 5.0 14.0 0.00 0.00 0.00 80 1011.8
20260509230034 67 220 6.0 14.0 0.00 0.00 0.00 79 1011.9
20260509225513 67 273 5.0 14.0 0.00 0.00 0.00 80 1011.9
20260509225012 66 350 6.0 15.0 0.00 0.00 0.00 80 1011.9
20260509224532 67 290 7.0 15.0 0.00 0.00 0.00 80 1012.0
20260509224013 67 244 7.0 14.0 0.00 0.00 0.00 79 1012.1
20260509223513 67 284 5.0 14.0 0.00 0.00 0.00 80 1012.1
20260509223033 67 281 6.0 14.0 0.00 0.00 0.00 80 1012.3
20260509222515 67 255 6.0 15.0 0.00 0.00 0.00 79 1012.3
20260509222013 67 273 8.0 15.0 0.00 0.00 0.00 79 1012.4
20260509221535 67 286 6.0 14.0 0.00 0.00 0.00 79 1012.5
20260509221013 68 262 5.0 15.0 0.00 0.00 0.00 78 1012.5
20260509220511 68 278 6.0 15.0 0.00 0.00 0.00 79 1012.6
20260509220028 68 207 4.0 14.0 0.00 0.00 0.00 79 1012.7
20260509215514 68 249 7.0 14.0 0.00 0.00 0.00 78 1012.6
20260509215009 68 246 4.0 14.0 0.00 0.00 0.00 78 1012.7
20260509214532 68 254 5.0 13.0 0.00 0.00 0.00 79 1012.7
20260509214013 68 246 5.0 13.0 0.00 0.00 0.00 78 1012.7
20260509213513 69 289 4.0 14.0 0.00 0.00 0.00 78 1012.9
20260509213033 68 239 6.0 15.0 0.00 0.00 0.00 79 1012.9
20260509212514 68 269 7.0 15.0 0.00 0.00 0.00 79 1013.0
20260509212016 68 227 5.0 12.0 0.00 0.00 0.00 78 1013.0
20260509211531 69 273 5.0 12.0 0.00 0.00 0.00 78 1013.0
20260509211015 69 271 3.0 15.0 0.00 0.00 0.00 79 1013.1
20260509210515 69 259 6.0 15.0 0.00 0.00 0.00 78 1013.2
20260509210034 69 260 6.0 13.0 0.00 0.00 0.00 77 1013.1
20260509205513 69 217 5.0 13.0 0.00 0.00 0.00 77 1013.1
20260509205014 69 218 5.0 12.0 0.00 0.00 0.00 77 1013.1
20260509204528 69 256 6.0 13.0 0.00 0.00 0.00 78 1013.1
20260509204010 69 275 8.0 14.0 0.00 0.00 0.00 77 1013.1
20260509203513 70 228 5.0 14.0 0.00 0.00 0.00 77 1013.1
20260509203030 70 234 5.0 14.0 0.00 0.00 0.00 77 1013.1
20260509202513 70 258 5.0 14.0 0.00 0.00 0.00 76 1013.1
20260509202013 70 247 5.0 11.0 0.00 0.00 0.00 76 1013.1
20260509201530 70 237 5.0 13.0 0.00 0.00 0.00 77 1013.1
20260509201013 70 267 6.0 13.0 0.00 0.00 0.00 77 1013.1
20260509200513 70 214 4.0 12.0 0.00 0.00 0.00 77 1013.2
20260509200032 69 277 5.0 12.0 0.00 0.00 0.00 77 1013.2
20260509195516 69 261 4.0 12.0 0.00 0.00 0.00 78 1013.3
20260509195013 69 236 4.0 12.0 0.00 0.00 0.00 78 1013.4
20260509194533 69 236 5.0 12.0 0.00 0.00 0.00 78 1013.4
20260509194013 69 230 4.0 11.0 0.00 0.00 0.00 77 1013.5
20260509193513 69 232 3.0 12.0 0.00 0.00 0.00 78 1013.5
20260509193036 68 262 5.0 12.0 0.00 0.00 0.00 79 1013.5
20260509192513 68 196 3.0 12.0 0.00 0.00 0.00 79 1013.6
20260509192016 68 257 4.0 12.0 0.00 0.00 0.00 79 1013.7
20260509191531 68 267 5.0 12.0 0.00 0.00 0.00 78 1013.7
20260509191012 68 263 3.0 10.0 0.00 0.00 0.00 79 1013.7
20260509190514 68 232 5.0 11.0 0.00 0.00 0.00 79 1013.7
20260509190030 68 190 3.0 11.0 0.00 0.00 0.00 79 1013.7
20260509185514 68 263 5.0 11.0 0.00 0.00 0.00 78 1013.8
20260509185014 68 220 3.0 10.0 0.00 0.00 0.00 79 1013.9
20260509184539 68 252 4.0 10.0 0.00 0.00 0.00 79 1013.9
20260509184015 68 269 5.0 10.0 0.00 0.00 0.00 79 1013.9
20260509183512 68 265 4.0 12.0 0.00 0.00 0.00 80 1013.9
20260509183035 67 262 4.0 12.0 0.00 0.00 0.00 80 1013.9
20260509182514 67 255 5.0 12.0 0.00 0.00 0.00 80 1013.9
20260509182010 67 267 5.0 11.0 0.00 0.00 0.00 80 1013.9
20260509181530 67 268 6.0 10.0 0.00 0.00 0.00 80 1013.8
20260509181024 67 265 5.0 9.0 0.00 0.00 0.00 80 1013.9
20260509180511 67 226 3.0 9.0 0.00 0.00 0.00 81 1013.9
20260509180031 67 236 4.0 9.0 0.00 0.00 0.00 81 1013.9
20260509175513 67 257 4.0 10.0 0.00 0.00 0.00 81 1014.0
20260509175017 67 219 4.0 10.0 0.00 0.00 0.00 81 1014.0
20260509174530 66 201 4.0 9.0 0.00 0.00 0.00 81 1014.0
20260509174014 66 263 4.0 9.0 0.00 0.00 0.00 81 1014.0
20260509173513 67 217 3.0 7.0 0.00 0.00 0.00 81 1014.0
20260509173039 67 232 2.0 7.0 0.00 0.00 0.00 80 1014.0
20260509172516 68 265 2.0 6.0 0.00 0.00 0.00 80 1014.0
20260509172013 68 270 1.0 5.0 0.00 0.00 0.00 79 1014.0
20260509171540 67 109 1.0 5.0 0.00 0.00 0.00 79 1013.8
20260509171013 67 170 1.0 4.0 0.00 0.00 0.00 80 1013.8
20260509170513 66 252 0.0 4.0 0.00 0.00 0.00 80 1013.8
20260509170031 66 29 1.0 4.0 0.00 0.00 0.00 81 1013.7
20260509165513 66 76 2.0 4.0 0.00 0.00 0.00 81 1013.7
20260509165013 66 101 1.0 3.0 0.00 0.00 0.00 82 1013.7
20260509164529 65 0 1.0 3.0 0.00 0.00 0.00 82 1013.7
20260509164012 65 0 0.0 2.0 0.00 0.00 0.00 83 1013.7
20260509163512 65 0 0.0 3.0 0.00 0.00 0.00 83 1013.8
20260509163035 65 102 1.0 4.0 0.00 0.00 0.00 83 1013.8
20260509162511 64 116 0.0 4.0 0.00 0.00 0.00 84 1013.9
20260509162013 64 54 1.0 4.0 0.00 0.00 0.00 85 1013.8
20260509161534 64 0 0.0 3.0 0.00 0.00 0.00 85 1013.7
20260509161018 64 73 0.0 3.0 0.00 0.00 0.00 85 1013.8
20260509160513 64 32 1.0 4.0 0.00 0.00 0.00 85 1013.9
20260509160032 63 65 2.0 4.0 0.00 0.00 0.00 85 1013.9
20260509155512 63 70 1.0 4.0 0.00 0.00 0.00 86 1013.9
20260509155013 63 5 1.0 4.0 0.00 0.00 0.00 86 1013.9
20260509154534 63 40 1.0 4.0 0.00 0.00 0.00 86 1013.8
20260509154014 63 43 1.0 7.0 0.00 0.00 0.00 87 1013.8
20260509153514 63 0 2.0 7.0 0.00 0.00 0.00 87 1013.9
20260509153034 62 119 0.0 5.0 0.00 0.00 0.00 87 1013.9
20260509152513 62 0 1.0 5.0 0.00 0.00 0.00 87 1013.9
20260509152014 62 148 2.0 5.0 0.00 0.00 0.00 88 1014.0
20260509151530 62 151 0.0 3.0 0.00 0.00 0.00 88 1013.9
20260509151013 62 100 0.0 4.0 0.00 0.00 0.00 88 1013.9
20260509150512 62 99 2.0 4.0 0.00 0.00 0.00 89 1013.9
20260509150030 61 0 1.0 4.0 0.00 0.00 0.00 89 1013.9
20260509145514 61 86 1.0 4.0 0.00 0.00 0.00 89 1013.9
20260509145010 61 86 1.0 3.0 0.00 0.00 0.00 89 1013.9
20260509144551 61 127 0.0 4.0 0.00 0.00 0.00 89 1013.9
20260509144012 61 127 1.0 4.0 0.00 0.00 0.00 90 1014.0
20260509143517 61 103 1.0 4.0 0.00 0.00 0.00 90 1013.9
20260509143032 61 38 1.0 4.0 0.00 0.00 0.00 90 1013.9
20260509142515 61 93 1.0 4.0 0.00 0.00 0.00 90 1013.8
20260509142011 61 0 0.0 3.0 0.00 0.00 0.00 90 1013.8
20260509141536 61 39 0.0 3.0 0.00 0.00 0.00 90 1013.7
20260509141014 61 63 1.0 3.0 0.00 0.00 0.00 91 1013.7
20260509140513 60 90 0.0 3.0 0.00 0.00 0.00 91 1013.7
20260509140031 60 0 0.0 3.0 0.00 0.00 0.00 91 1013.6
20260509135512 60 90 1.0 3.0 0.00 0.00 0.00 91 1013.6
20260509135012 60 0 1.0 3.0 0.00 0.00 0.00 91 1013.6
20260509134530 60 0 0.0 3.0 0.00 0.00 0.00 91 1013.6
20260509134010 60 0 0.0 2.0 0.00 0.00 0.00 91 1013.7
20260509133513 60 0 0.0 2.0 0.00 0.00 0.00 91 1013.7
20260509133034 60 75 0.0 2.0 0.00 0.00 0.00 91 1013.6
20260509132513 60 75 0.0 2.0 0.00 0.00 0.00 92 1013.6
20260509132012 60 73 0.0 2.0 0.00 0.00 0.00 92 1013.5
20260509131538 60 0 0.0 3.0 0.00 0.00 0.00 91 1013.5
20260509131017 60 0 0.0 3.0 0.00 0.00 0.00 92 1013.4
20260509130513 60 71 1.0 3.0 0.00 0.00 0.00 92 1013.4
20260509130030 60 36 1.0 3.0 0.00 0.00 0.00 92 1013.3
20260509125514 60 87 0.0 2.0 0.00 0.00 0.00 92 1013.4
20260509125014 60 0 0.0 1.0 0.00 0.00 0.00 92 1013.3
20260509124535 60 0 0.0 1.0 0.00 0.00 0.00 92 1013.3
20260509124012 60 0 0.0 1.0 0.00 0.00 0.00 92 1013.3
20260509123513 60 0 0.0 2.0 0.00 0.00 0.00 92 1013.3
20260509123030 60 0 0.0 2.0 0.00 0.00 0.00 92 1013.3
20260509122511 60 0 0.0 4.0 0.00 0.00 0.00 92 1013.3
20260509122012 60 0 0.0 5.0 0.00 0.00 0.00 92 1013.3
20260509121533 60 159 2.0 5.0 0.00 0.00 0.00 92 1013.4
20260509121010 60 115 1.0 3.0 0.00 0.00 0.00 92 1013.3
20260509120513 60 126 1.0 3.0 0.00 0.00 0.00 92 1013.4
20260509120032 60 109 1.0 3.0 0.00 0.00 0.00 92 1013.3
20260509115512 60 88 1.0 4.0 0.00 0.00 0.00 92 1013.4
20260509115013 60 107 1.0 4.0 0.00 0.00 0.00 92 1013.4
20260509114530 60 122 1.0 4.0 0.00 0.00 0.00 92 1013.4
20260509114012 60 105 2.0 6.0 0.00 0.00 0.00 92 1013.4
20260509113514 60 88 2.0 6.0 0.00 0.00 0.00 92 1013.4
20260509113031 60 130 3.0 6.0 0.00 0.00 0.00 92 1013.4
20260509112511 60 98 1.0 7.0 0.00 0.00 0.00 92 1013.3
20260509112010 60 82 1.0 7.0 0.00 0.00 0.00 92 1013.3
20260509111529 60 103 2.0 7.0 0.00 0.00 0.00 92 1013.3
20260509111011 60 123 1.0 6.0 0.00 0.00 0.00 92 1013.2
20260509110512 60 107 2.0 6.0 0.00 0.00 0.00 92 1013.3
20260509110030 60 90 2.0 7.0 0.00 0.00 0.00 92 1013.3
20260509105513 60 107 1.0 7.0 0.00 0.00 0.00 92 1013.4
20260509105014 60 113 2.0 7.0 0.00 0.00 0.00 92 1013.3
20260509104534 60 123 1.0 4.0 0.00 0.00 0.00 92 1013.4
20260509104013 60 114 1.0 4.0 0.00 0.00 0.00 92 1013.4
20260509103512 60 104 1.0 4.0 0.00 0.00 0.00 92 1013.4
20260509103032 60 107 1.0 4.0 0.00 0.00 0.00 92 1013.4
20260509102516 60 86 2.0 4.0 0.00 0.00 0.00 92 1013.4
20260509102014 60 92 1.0 4.0 0.00 0.00 0.00 92 1013.4
20260509101530 60 0 0.0 2.0 0.00 0.00 0.00 92 1013.4
20260509101014 60 0 0.0 2.0 0.00 0.00 0.00 92 1013.5
20260509100514 60 273 0.0 2.0 0.00 0.00 0.00 92 1013.5
20260509100041 60 277 0.0 3.0 0.00 0.00 0.00 92 1013.4
20260509095512 60 0 0.0 3.0 0.00 0.00 0.00 92 1013.4
20260509095012 60 262 1.0 3.0 0.00 0.00 0.00 92 1013.6
20260509094534 60 0 1.0 3.0 0.00 0.00 0.00 92 1013.6
20260509094011 60 275 0.0 3.0 0.00 0.00 0.00 92 1013.5
20260509093513 60 275 1.0 3.0 0.00 0.00 0.00 91 1013.6
20260509093034 60 0 0.0 3.0 0.00 0.00 0.00 91 1013.7
20260509092513 60 266 1.0 3.0 0.00 0.00 0.00 91 1013.7
20260509092010 60 275 1.0 3.0 0.00 0.00 0.00 91 1013.7
20260509091530 60 271 1.0 3.0 0.00 0.00 0.00 91 1013.7
20260509091015 60 279 0.0 3.0 0.00 0.00 0.00 91 1013.8
20260509090511 60 274 0.0 3.0 0.00 0.00 0.00 91 1013.9
20260509090030 60 0 0.0 3.0 0.00 0.00 0.00 91 1013.8
20260509085513 60 282 0.0 3.0 0.00 0.00 0.00 91 1013.8
20260509085017 60 276 1.0 3.0 0.00 0.00 0.00 91 1014.0
20260509084533 60 265 1.0 3.0 0.00 0.00 0.00 91 1014.0
20260509084013 60 248 0.0 3.0 0.00 0.00 0.00 91 1014.0
20260509083512 60 263 1.0 3.0 0.00 0.00 0.00 91 1014.0
20260509083031 60 269 1.0 3.0 0.00 0.00 0.00 91 1014.1
20260509082518 60 273 1.0 2.0 0.00 0.00 0.00 91 1014.1
20260509082013 60 0 0.0 2.0 0.00 0.00 0.00 91 1014.2
20260509081541 60 259 0.0 2.0 0.00 0.00 0.00 91 1014.2
20260509081014 60 0 0.0 2.0 0.00 0.00 0.00 91 1014.3
20260509080511 60 0 0.0 3.0 0.00 0.00 0.00 91 1014.3
20260509080030 60 0 0.0 3.0 0.00 0.00 0.00 91 1014.4
20260509075514 60 0 1.0 3.0 0.00 0.00 0.00 90 1014.4
20260509075016 60 263 1.0 4.0 0.00 0.00 0.00 90 1014.4
20260509074535 60 252 1.0 4.0 0.00 0.00 0.00 90 1014.4
20260509074013 60 248 1.0 4.0 0.00 0.00 0.00 90 1014.6
20260509073513 60 238 1.0 4.0 0.00 0.00 0.00 90 1014.5
20260509073028 60 246 1.0 3.0 0.00 0.00 0.00 90 1014.6
20260509072511 60 275 1.0 3.0 0.00 0.00 0.00 90 1014.5
20260509072013 60 0 0.0 2.0 0.00 0.00 0.00 90 1014.5
20260509071528 60 261 0.0 3.0 0.00 0.00 0.00 90 1014.5
20260509071013 60 259 1.0 3.0 0.00 0.00 0.00 90 1014.6